Location: Songkhla
(7.2000°N, 100.6000°E)
Time: 12:06:25
(UTC+07:00)

XW-2D - Visible Passes

Search period start: 29 July 2021 00:00
Search period end: 08 August 2021 00:00
Orbit: 504 x 525 km, 97.5° (Epoch: 28 July)

Date Brightness Start Highest point End Pass type
(mag) Time Alt. Az. Time Alt. Az. Time Alt. Az.
29 Jul ? 05:09:45 10° ENE 05:11:53 15° E 05:14:02 10° SE visible
02 Aug ? 05:41:13 10° NNE 05:44:52 48° E 05:48:33 10° S visible
03 Aug ? 05:26:25 10° NE 05:29:40 27° E 05:32:55 10° SSE visible
04 Aug ? 05:12:03 10° ENE 05:14:26 16° E 05:16:50 10° SE visible
